Flag for U.S.A. Weather past 2 weeks in Lexington, Virginia, U.S.A.

Now
57 °F

Fog.


Feels Like: 57 °F
Forecast: 58 / 79 °F
Wind: No wind

Location: Hot Springs / Ingalls

Current Time: May 7, 2015 at 2:45:07 AM

Latest Report: May 7, 2015 at 2:15 AM


Visibility: 5 mi

Pressure: 30.27 "Hg

Humidity: 100%

Dew point: 57 °F

Location of LexingtonLocation

Historic Weather in Lexington — Graph

°F

Lexington temperature yesterday

Maximum temperature yesterday: 74 °F (at 2:15 PM)
Minimum temperature yesterday: 58 °F (at 4:35 AM)
Average temperature yesterday: 66 °F

Past Weeks' High & Low Weather Summary

 TemperatureHumidityPressure
High74 °F (May 6, 2:15 PM)100% (Apr 25, 12:55 PM)30.40 "Hg (Apr 25, 12:55 PM)
Low31 °F (Apr 24, 6:35 AM)14% (Apr 24, 3:35 PM)29.56 "Hg (Apr 26, 3:35 AM)
Average49 °F60%29.96 "Hg
* Reported Apr 22 1:15 AM — May 7 1:55 AM, Lexington, Weather by CustomWeather, © 2015

Note: Actual official high and low records may vary slightly from our data, if they occured in-between our weather recording intervals... More about our weather records

Advertising

Lexington weather history for previous 24 hours

 ConditionsComfort  
Time TempWeatherWind HumidityBarometerVisibility
1:55 AM
Thu, May 7
58 °FFog.7 mph100%30.27 "Hg1 mi
1:15 AM59 °FThundershowers. Passing clouds.7 mph85%30.28 "Hg10 mi
12:55 AM60 °FPassing clouds.6 mph84%30.27 "Hg10 mi
12:35 AM59 °FPartly cloudy.6 mph83%30.28 "Hg10 mi
12:15 AM62 °FMostly cloudy.6 mph69%30.28 "Hg10 mi
11:55 PM
Wed, May 6
62 °FPassing clouds.6 mph70%30.27 "Hg10 mi
11:35 PM62 °FPassing clouds.6 mph67%30.27 "Hg10 mi
11:15 PM62 °FClear.5 mph65%30.27 "Hg10 mi
10:55 PM62 °FPassing clouds.3 mph67%30.28 "Hg10 mi
10:15 PM61 °FDrizzle. Overcast.5 mph73%30.28 "Hg10 mi
9:55 PM64 °FRain. Overcast.No wind64%30.28 "Hg7 mi
9:15 PM65 °FMostly cloudy.No wind60%30.27 "Hg10 mi
8:55 PM65 °FCloudy.3 mph59%30.26 "Hg10 mi
8:15 PM65 °FMostly cloudy.No wind57%30.26 "Hg10 mi
7:55 PM66 °FCloudy.3 mph53%30.25 "Hg10 mi
7:15 PM66 °FBroken clouds.No wind54%30.24 "Hg10 mi
6:55 PM67 °FPartly sunny.No wind52%30.25 "Hg10 mi
6:15 PM69 °FPartly sunny.6 mph50%30.26 "Hg10 mi
5:55 PM70 °FMore clouds than sun.6 mph51%30.26 "Hg10 mi
5:15 PM71 °FSunny.6 mph43%30.26 "Hg10 mi
4:55 PM71 °FSunny.7 mph41%30.26 "Hg10 mi
4:35 PM70 °FScattered clouds.8 mph46%30.26 "Hg10 mi
4:15 PM68 °FBroken clouds.9 mph50%30.26 "Hg10 mi
3:50 PM69 °FThundershowers. More clouds than sun.5 mph45%30.27 "Hg10 mi
3:35 PM71 °FMore clouds than sun.6 mph42%30.27 "Hg10 mi
3:15 PM72 °FMostly cloudy.3 mph33%30.28 "Hg10 mi
2:55 PM73 °FPartly sunny.5 mph33%30.28 "Hg10 mi
2:35 PM74 °FPartly sunny.7 mph31%30.28 "Hg10 mi
2:15 PM74 °FMore clouds than sun.8 mph30%30.28 "Hg10 mi
1:55 PM71 °FMore clouds than sun.No wind35%30.29 "Hg10 mi
1:35 PM74 °FOvercast.5 mph35%30.30 "Hg10 mi
1:15 PM71 °FOvercast.3 mph39%30.31 "Hg10 mi
12:55 PM72 °FOvercast.9 mph43%30.31 "Hg10 mi
12:35 PM72 °FOvercast.6 mph49%30.32 "Hg10 mi
12:15 PM70 °FOvercast.5 mph52%30.33 "Hg10 mi
11:55 AM70 °FOvercast.3 mph46%30.33 "Hg10 mi
11:35 AM69 °FOvercast.7 mph52%30.33 "Hg10 mi
11:15 AM69 °FOvercast.8 mph51%30.33 "Hg10 mi
10:55 AM68 °FMore clouds than sun.6 mph54%30.33 "Hg10 mi
10:35 AM67 °FMostly cloudy.7 mph55%30.33 "Hg10 mi
10:15 AM67 °FOvercast.6 mph57%30.34 "Hg10 mi
9:55 AM67 °FMostly cloudy.5 mph56%30.34 "Hg10 mi
9:35 AM66 °FMore clouds than sun.6 mph56%30.33 "Hg10 mi
9:15 AM65 °FMore clouds than sun.5 mph56%30.33 "Hg10 mi
8:55 AM65 °FMostly cloudy.5 mph58%30.34 "Hg10 mi
8:35 AM64 °FMostly cloudy.6 mph60%30.33 "Hg10 mi
8:15 AM63 °FOvercast.5 mph64%30.33 "Hg10 mi
7:55 AM62 °FMostly cloudy.5 mph66%30.33 "Hg10 mi
7:35 AM62 °FOvercast.5 mph66%30.33 "Hg10 mi
7:15 AM61 °FOvercast.6 mph68%30.32 "Hg10 mi
6:55 AM60 °FOvercast.3 mph72%30.32 "Hg10 mi
6:15 AM61 °FPassing clouds.6 mph67%30.31 "Hg10 mi
5:55 AM61 °FOvercast.6 mph67%30.30 "Hg10 mi
5:15 AM60 °FPassing clouds.7 mph68%30.30 "Hg10 mi
4:55 AM60 °FOvercast.7 mph69%30.31 "Hg10 mi
4:35 AM58 °FPassing clouds.5 mph71%30.31 "Hg10 mi
4:15 AM61 °FClear.3 mph66%30.31 "Hg10 mi
3:55 AM61 °FClear.5 mph66%30.32 "Hg10 mi
3:15 AM61 °FClear.5 mph67%30.32 "Hg10 mi
2:55 AM61 °FClear.6 mph68%30.32 "Hg10 mi
2:35 AM61 °FClear.7 mph69%30.32 "Hg10 mi
2:15 AM61 °FPassing clouds.7 mph68%30.32 "Hg10 mi
Weather by CustomWeather, © 2015

See weather overviewHow to use our weather pages